Nykoping Skavsta, Sweden

9:54 AM CEST on May 27, 2017 (GMT +0200)
Skavsta

Weather History for ESKN - March, 2013

Change the Weather History Date:

Tuesday, March 26, 2013

  Actual Average Record
Temperature  
Mean Temperature 28 °F -  
Max Temperature 39 °F - - ()
Min Temperature 17 °F - - ()
Degree Days  
Heating Degree Days 37    
Moisture  
Dew Point 17 °F    
Average Humidity 63    
Maximum Humidity 86    
Minimum Humidity 39    
Precipitation  
Precipitation 0.00 in - - ()
Sea Level Pressure  
Sea Level Pressure 30.25 in    
Wind  
Wind Speed 3 mph ()    
Max Wind Speed 8 mph    
Max Gust Speed -    
Visibility 6.2 miles    
Events      
T = Trace of Precipitation, MM = Missing Value Source: Averaged Metar Reports

Daily Weather History Graph

Daily Weather History Graph

Search for Another Location

Airport or City:

Trip Planner

Search our weather history database for the weather conditions in past years. The results will help you decide how hot, cold, wet, or windy it might be!

Date:

Astronomy

Mar. 26, 2013 Rise Set
Actual Time 5:36 AM CET 6:20 PM CET
Civil Twilight 4:56 AM CET 7:01 PM CET
Nautical Twilight 4:06 AM CET 7:50 PM CET
Astronomical Twilight 3:12 AM CET 8:45 PM CET
Moon 5:37 PM CET (3/26) 4:52 AM CET (3/26)
Length of Visible Light 14h 05m
Length of Day
12h 43m
Waxing Gibbous, 99% of the Moon is Illuminated
Mar 26
Waxing Gibbous
Mar 27
Full
Apr 3
Last Quarter
Apr 10
New
Apr 18
First Quarter

Hourly Weather History & Observations

Time (CET) Temp. Windchill Dew Point Humidity Pressure Visibility Wind Dir Wind Speed Gust Speed Precip Events Conditions
12:20 AM 19.4 °F - 15.8 °F 86% 30.30 in - WNW 2.3 mph - N/A   Clear
12:50 AM 17.6 °F - 14.0 °F 86% 30.30 in - Variable 1.2 mph - N/A   Clear
1:20 AM 19.4 °F - 14.0 °F 80% 30.30 in - Variable 2.3 mph - N/A   Clear
1:50 AM 21.2 °F 16.4 °F 15.8 °F 80% 30.30 in - West 3.5 mph - N/A   Clear
2:20 AM 21.2 °F - 15.8 °F 80% 30.30 in - Variable 1.2 mph - N/A   Clear
2:50 AM 19.4 °F - 14.0 °F 80% 30.30 in - Variable 2.3 mph - N/A   Clear
3:20 AM 21.2 °F - 15.8 °F 80% 30.30 in 6.2 mi Variable 2.3 mph - N/A   Mostly Cloudy
3:50 AM 23.0 °F 17.0 °F 17.6 °F 80% 30.30 in - NNW 4.6 mph - N/A   Clear
4:20 AM 23.0 °F - 17.6 °F 80% 30.30 in - NW 2.3 mph - N/A   Clear
4:50 AM 24.8 °F - 17.6 °F 74% 30.27 in - Variable 2.3 mph - N/A   Clear
5:20 AM 21.2 °F - 15.8 °F 80% 30.27 in - Variable 2.3 mph - N/A   Clear
5:50 AM 21.2 °F - 15.8 °F 80% 30.30 in - NNE 2.3 mph - N/A   Clear
6:20 AM 24.8 °F 20.5 °F 17.6 °F 74% 30.27 in - NNE 3.5 mph - N/A   Clear
6:50 AM 28.4 °F 24.6 °F 19.4 °F 69% 30.27 in 6.2 mi NNE 3.5 mph - N/A   Mostly Cloudy
7:20 AM 32.0 °F 28.7 °F 19.4 °F 60% 30.27 in 6.2 mi West 3.5 mph - N/A   Scattered Clouds
7:50 AM 30.2 °F - 19.4 °F 64% 30.27 in - Variable 2.3 mph - N/A   Clear
8:20 AM 32.0 °F 28.7 °F 19.4 °F 60% 30.27 in - NNW 3.5 mph - N/A   Clear
8:50 AM 32.0 °F 27.5 °F 19.4 °F 60% 30.27 in - NNW 4.6 mph - N/A   Clear
9:20 AM 35.6 °F - 19.4 °F 52% 30.27 in - Variable 1.2 mph - N/A   Clear
9:50 AM 35.6 °F 32.8 °F 17.6 °F 48% 30.27 in - ENE 3.5 mph - N/A   Clear
10:20 AM 39.2 °F - 15.8 °F 39% 30.27 in - Variable 2.3 mph - N/A   Clear
10:50 AM 37.4 °F 34.9 °F 15.8 °F 41% 30.27 in 6.2 mi South 3.5 mph - N/A   Partly Cloudy
11:20 AM 35.6 °F 30.7 °F 17.6 °F 48% 30.27 in 6.2 mi West 5.8 mph - N/A   Scattered Clouds
11:50 AM 37.4 °F 34.9 °F 19.4 °F 48% 30.27 in 6.2 mi Variable 3.5 mph - N/A   Scattered Clouds
12:20 PM 37.4 °F 32.8 °F 17.6 °F 45% 30.24 in 6.2 mi North 5.8 mph - N/A   Scattered Clouds
12:50 PM 39.2 °F 34.2 °F 17.6 °F 42% 30.24 in - NNW 6.9 mph - N/A   Clear
1:20 PM 37.4 °F 31.4 °F 17.6 °F 45% 30.24 in - North 8.1 mph - N/A   Clear
1:50 PM 37.4 °F 34.9 °F 19.4 °F 48% 30.24 in - North 3.5 mph - N/A   Clear
2:20 PM 39.2 °F 35.9 °F 17.6 °F 42% 30.24 in - NE 4.6 mph - N/A   Clear
2:50 PM 37.4 °F 32.1 °F 19.4 °F 48% 30.21 in - NNW 6.9 mph - N/A   Clear
3:20 PM 37.4 °F 32.8 °F 17.6 °F 45% 30.21 in - NNW 5.8 mph - N/A   Clear
3:50 PM 37.4 °F 32.1 °F 17.6 °F 45% 30.21 in - NNW 6.9 mph - N/A   Clear
4:20 PM 37.4 °F 33.8 °F 19.4 °F 48% 30.21 in 6.2 mi North 4.6 mph - N/A   Mostly Cloudy
4:50 PM 37.4 °F 33.8 °F 17.6 °F 45% 30.21 in 6.2 mi NNE 4.6 mph - N/A   Scattered Clouds
5:20 PM 37.4 °F 34.9 °F 17.6 °F 45% 30.21 in - NNW 3.5 mph - N/A   Clear
5:50 PM 37.4 °F 34.9 °F 17.6 °F 45% 30.18 in - North 3.5 mph - N/A   Clear
6:20 PM 35.6 °F 32.8 °F 17.6 °F 48% 30.21 in - ENE 3.5 mph - N/A   Clear
6:50 PM 32.0 °F 28.7 °F 17.6 °F 55% 30.21 in - ENE 3.5 mph - N/A   Clear
7:20 PM 32.0 °F - 15.8 °F 51% 30.21 in - NE 2.3 mph - N/A   Clear
7:50 PM 28.4 °F - 19.4 °F 69% 30.21 in - Variable 2.3 mph - N/A   Clear
8:20 PM 26.6 °F - 19.4 °F 74% 30.18 in - Variable 1.2 mph - N/A   Clear
8:50 PM 24.8 °F - 17.6 °F 74% 30.21 in - Calm Calm - N/A   Clear
9:20 PM 23.0 °F - 17.6 °F 80% 30.21 in - Calm Calm - N/A   Clear
9:50 PM 24.8 °F - 17.6 °F 74% 30.21 in - Calm Calm - N/A   Clear
10:20 PM 23.0 °F - 17.6 °F 80% 30.21 in - East 1.2 mph - N/A   Clear
10:50 PM 24.8 °F - 17.6 °F 74% 30.21 in - Variable 1.2 mph - N/A   Clear
11:20 PM 24.8 °F - 19.4 °F 80% 30.21 in - Variable 1.2 mph - N/A   Clear
11:50 PM 21.2 °F - 15.8 °F 80% 30.21 in - Variable 2.3 mph - N/A   Clear